M I D A S
Marine Information and Data Acquisition System
Tripno 999 of the Zeeleeuw from 2005-07-19 09:09:39 to 2005-07-19 12:50:50
Back to CruiseResearch ActivitiesStationsMapUnderway DataData graphs

EquipmentUnitsComments
TimeDGPSUTC
LatitudeDGPSDM.mWGS84
LongitudeDGPSDM.mWGS84
SpeedMeteo Stationm/sRelative wind speed
DirectionMeteo StationdegRelative wind direction
TemperatureMeteo Stationdeg CelciusAir temperature
PressureMeteo StationPaAtmospheric pressure
HumidityMeteo Station%Relative humidity
Missing or incorrect values are displayed as -999
Metereological data collected by the RV Zeeleeuw from 2005-07-19 09:11:16 to 2005-07-19 12:57:17
Time Latitude Longitude Speed Direction Temperature Pressure Humidity
2005-07-19 09:12 51°13.625 2°56.031 5.1 173 17.6 101500 67
2005-07-19 09:13 51°13.648 2°55.93 8.3 164 17.6 101490 67
2005-07-19 09:14 51°13.686 2°55.822 8.3 175 17.4 101490 68
2005-07-19 09:15 51°13.748 2°55.717 9.2 154 17.4 101490 68
2005-07-19 09:16 51°13.827 2°55.655 1 275 17.3 101490 68
2005-07-19 09:17 51°13.91 2°55.644 6.7 130 17.4 101490 68
2005-07-19 09:18 51°13.95 2°55.664 3.5 69 17.5 101490 69
2005-07-19 09:19 51°13.949 2°55.628 8.1 333 17.5 101490 68
2005-07-19 09:20 51°14.014 2°55.53 7.5 316 17.5 101490 69
2005-07-19 09:21 51°14.148 2°55.407 8.9 332 17.6 101490 68
2005-07-19 09:22 51°14.279 2°55.236 12.5 337 17.6 101480 67
2005-07-19 09:23 51°14.417 2°55.029 12.1 330 17.4 101470 69
2005-07-19 09:24 51°14.624 2°54.921 12.2 330 17.3 101470 69
2005-07-19 09:25 51°14.824 2°54.821 11.9 333 17.2 101480 70
2005-07-19 09:26 51°15.01 2°54.729 12 324 17.2 101480 71
2005-07-19 09:27 51°15.195 2°54.639 12 323 17.1 101480 70
2005-07-19 09:28 51°15.386 2°54.564 12.1 318 17.1 101460 70
2005-07-19 09:29 51°15.58 2°54.491 10.6 322 17.1 101470 69
2005-07-19 09:30 51°15.76 2°54.434 11 315 17.1 101470 69
2005-07-19 09:31 51°15.919 2°54.386 10.9 312 17.2 101480 69
2005-07-19 09:32 51°16.045 2°54.358 9.1 308 17.3 101480 71
2005-07-19 09:33 51°16.133 2°54.36 9 299 17.4 101490 70
2005-07-19 09:34 51°16.202 2°54.359 8.6 313 17.4 101490 69
2005-07-19 09:35 51°16.245 2°54.369 8.8 311 17.5 101490 67
2005-07-19 09:36 51°16.274 2°54.38 8.9 349 17.5 101490 68
2005-07-19 09:37 51°16.28 2°54.378 9.3 31 17.4 101490 67
2005-07-19 09:38 51°16.265 2°54.367 8.5 23 17.2 101490 67
2005-07-19 09:39 51°16.262 2°54.342 9.5 12 17.2 101500 69
2005-07-19 09:40 51°16.254 2°54.321 8.7 32 17.2 101490 69
2005-07-19 09:41 51°16.248 2°54.319 8.7 -999 17.2 101500 69
2005-07-19 09:42 51°16.256 2°54.317 8.8 17 17.2 101500 69
2005-07-19 09:43 51°16.258 2°54.318 8.7 20 17.3 101490 70
2005-07-19 09:44 51°16.26 2°54.324 9 8 17.2 101490 68
2005-07-19 09:45 51°16.263 2°54.338 7.9 19 17.3 101500 67
2005-07-19 09:46 51°16.263 2°54.345 10 13 17.2 101500 66
2005-07-19 09:47 51°16.265 2°54.35 9.6 12 17.2 101510 68
2005-07-19 09:48 51°16.262 2°54.359 9 24 17.2 101500 66
2005-07-19 09:49 51°16.264 2°54.366 9.1 7 17.1 101500 68
2005-07-19 09:50 51°16.272 2°54.376 9.7 1 17.2 101510 69
2005-07-19 09:51 51°16.281 2°54.384 9.4 12 17.3 101490 69
2005-07-19 09:52 51°16.287 2°54.385 9.7 357 17.3 101500 69
2005-07-19 09:53 51°16.298 2°54.372 9.3 359 17.3 101500 69
2005-07-19 09:54 51°16.303 2°54.347 9.8 10 17.5 101510 72
2005-07-19 09:55 51°16.295 2°54.316 8.8 27 17.5 101500 68
2005-07-19 09:56 51°16.283 2°54.296 10.8 25 17.4 101500 69
2005-07-19 09:57 51°16.279 2°54.272 11.1 15 17.4 101500 66
2005-07-19 09:58 51°16.277 2°54.251 11 27 17.4 101500 65
2005-07-19 09:59 51°16.268 2°54.245 9.7 37 17.3 101500 66
2005-07-19 10:00 51°16.261 2°54.252 9.7 33 17.3 101490 67
2005-07-19 10:01 51°16.257 2°54.269 10.7 36 17.2 101500 69
2005-07-19 10:02 51°16.258 2°54.295 9.6 21 17.1 101500 69
2005-07-19 10:03 51°16.267 2°54.338 7.5 28 17.2 101510 70
2005-07-19 10:04 51°16.28 2°54.394 9.2 44 17.2 101510 68
2005-07-19 10:05 51°16.3 2°54.456 6.8 76 17.1 101510 69
2005-07-19 10:06 51°16.321 2°54.513 11.3 101 17.2 101500 73
2005-07-19 10:07 51°16.342 2°54.57 9.8 107 17.1 101510 72
2005-07-19 10:08 51°16.361 2°54.627 10.2 107 17.1 101520 73
2005-07-19 10:09 51°16.38 2°54.683 9.4 119 17.1 101520 76
2005-07-19 10:10 51°16.378 2°54.738 10.6 68 17.1 101510 74
2005-07-19 10:11 51°16.358 2°54.715 11.6 354 17 101510 73
2005-07-19 10:12 51°16.397 2°54.667 11.7 335 17 101490 72
2005-07-19 10:13 51°16.437 2°54.636 11.7 339 17.1 101500 72
2005-07-19 10:14 51°16.475 2°54.61 11.4 332 17.1 101510 72
2005-07-19 10:15 51°16.513 2°54.587 10.8 328 17.1 101500 71
2005-07-19 10:16 51°16.548 2°54.566 11.7 339 17.2 101520 73
2005-07-19 10:17 51°16.585 2°54.551 11.7 340 17.1 101500 71
2005-07-19 10:18 51°16.62 2°54.54 11.1 334 17.2 101510 70
2005-07-19 10:19 51°16.657 2°54.535 9.8 331 17.2 101510 71
2005-07-19 10:20 51°16.693 2°54.527 10.5 337 17.3 101510 73
2005-07-19 10:21 51°16.729 2°54.516 11.7 333 17.3 101490 70
2005-07-19 10:22 51°16.766 2°54.508 12.5 330 17.3 101490 67
2005-07-19 10:23 51°16.805 2°54.505 11.1 328 17.3 101510 69
2005-07-19 10:24 51°16.832 2°54.49 11.2 25 17.3 101510 69
2005-07-19 10:25 51°16.778 2°54.472 14.2 46 17.3 101500 70
2005-07-19 10:26 51°16.643 2°54.404 15.6 46 17.1 101480 70
2005-07-19 10:27 51°16.484 2°54.361 13.8 45 17.1 101480 71
2005-07-19 10:28 51°16.36 2°54.325 12.8 51 17.1 101490 70
2005-07-19 10:29 51°16.29 2°54.32 12.3 62 17.1 101480 71
2005-07-19 10:30 51°16.258 2°54.321 10.8 41 17 101500 71
2005-07-19 10:31 51°16.26 2°54.356 11.2 30 17 101510 70
2005-07-19 10:32 51°16.268 2°54.407 11.6 53 17.1 101490 69
2005-07-19 10:33 51°16.282 2°54.467 11.5 86 17 101500 69
2005-07-19 10:34 51°16.299 2°54.527 10.6 109 17.1 101510 69
2005-07-19 10:35 51°16.316 2°54.585 9.7 123 17.1 101520 70
2005-07-19 10:36 51°16.331 2°54.644 11.9 123 17.2 101520 72
2005-07-19 10:37 51°16.316 2°54.693 10.8 66 17.2 101520 68
2005-07-19 10:38 51°16.311 2°54.642 13.8 351 17.2 101530 70
2005-07-19 10:39 51°16.383 2°54.499 14.8 352 17.3 101520 65
2005-07-19 10:40 51°16.457 2°54.298 16.9 347 17.5 101520 67
2005-07-19 10:41 51°16.534 2°54.097 16.5 340 17.5 101520 67
2005-07-19 10:42 51°16.613 2°53.89 14.7 343 17.6 101530 67
2005-07-19 10:43 51°16.691 2°53.689 16.6 344 17.6 101510 66
2005-07-19 10:44 51°16.773 2°53.491 16.2 340 17.6 101530 66
2005-07-19 10:45 51°16.867 2°53.303 15 333 17.6 101530 65
2005-07-19 10:46 51°16.957 2°53.105 14.2 336 17.6 101520 69
2005-07-19 10:47 51°17.052 2°52.902 17.1 338 17.6 101520 69
2005-07-19 10:48 51°17.163 2°52.714 16.6 331 17.5 101510 67
2005-07-19 10:49 51°17.279 2°52.534 16.3 329 17.4 101520 64
2005-07-19 10:50 51°17.397 2°52.349 15.1 325 17.5 101530 67
2005-07-19 10:51 51°17.511 2°52.163 16.7 333 17.4 101540 65
2005-07-19 10:52 51°17.627 2°51.977 14.3 321 17.4 101520 66
2005-07-19 10:53 51°17.748 2°51.797 16.7 330 17.4 101530 68
2005-07-19 10:54 51°17.882 2°51.635 16 321 17.4 101530 66
2005-07-19 10:55 51°18.013 2°51.473 16.9 324 17.4 101510 64
2005-07-19 10:56 51°18.149 2°51.315 15.7 322 17.4 101520 64
2005-07-19 10:57 51°18.28 2°51.157 14.5 318 17.5 101520 66
2005-07-19 10:58 51°18.414 2°50.994 16.3 325 17.6 101520 68
2005-07-19 10:59 51°18.531 2°50.918 11.8 283 17.6 101530 67
2005-07-19 11:00 51°18.573 2°50.949 9.1 239 17.6 101580 67
2005-07-19 11:01 51°18.578 2°50.986 10.7 231 17.6 101560 67
2005-07-19 11:02 51°18.593 2°51.028 10.3 234 17.5 101560 68
2005-07-19 11:03 51°18.611 2°51.074 11.4 242 17.4 101560 64
2005-07-19 11:04 51°18.632 2°51.117 8.5 262 17.5 101560 67
2005-07-19 11:05 51°18.651 2°51.156 8.9 261 17.5 101560 68
2005-07-19 11:06 51°18.666 2°51.2 11.2 268 17.6 101570 67
2005-07-19 11:07 51°18.678 2°51.246 9.1 264 17.7 101570 66
2005-07-19 11:08 51°18.69 2°51.293 7.4 257 17.7 101560 64
2005-07-19 11:09 51°18.711 2°51.34 8.9 237 17.7 101560 67
2005-07-19 11:10 51°18.745 2°51.386 8.7 247 17.6 101560 65
2005-07-19 11:11 51°18.786 2°51.443 10.3 243 17.6 101570 64
2005-07-19 11:12 51°18.834 2°51.501 10.3 238 17.7 101570 65
2005-07-19 11:13 51°18.883 2°51.566 9.9 253 17.6 101580 62
2005-07-19 11:14 51°18.935 2°51.625 7.4 249 17.7 101570 64
2005-07-19 11:15 51°18.988 2°51.688 9.4 248 17.7 101570 63
2005-07-19 11:16 51°19.041 2°51.747 7.9 253 17.7 101580 63
2005-07-19 11:17 51°19.093 2°51.808 8.1 253 17.7 101570 63
2005-07-19 11:18 51°19.144 2°51.871 10.8 234 17.7 101580 66
2005-07-19 11:19 51°19.194 2°51.942 9.5 242 17.6 101580 65
2005-07-19 11:20 51°19.249 2°52.007 11.1 242 17.6 101570 67
2005-07-19 11:21 51°19.302 2°52.071 10.2 239 17.6 101580 65
2005-07-19 11:22 51°19.357 2°52.137 9.5 242 17.7 101580 68
2005-07-19 11:23 51°19.408 2°52.206 10.5 245 17.7 101590 68
2005-07-19 11:24 51°19.462 2°52.272 9.7 251 17.6 101580 63
2005-07-19 11:25 51°19.513 2°52.341 11 239 17.6 101580 63
2005-07-19 11:26 51°19.56 2°52.442 10.5 160 17.6 101600 67
2005-07-19 11:27 51°19.523 2°52.546 12.3 66 17.5 101590 67
2005-07-19 11:28 51°19.457 2°52.463 15.3 22 17.5 101550 68
2005-07-19 11:29 51°19.36 2°52.273 17 27 17.6 101580 68
2005-07-19 11:30 51°19.244 2°52.09 18.1 21 17.6 101550 69
2005-07-19 11:31 51°19.118 2°51.897 18.3 25 17.5 101540 68
2005-07-19 11:32 51°18.99 2°51.708 19 23 17.5 101540 71
2005-07-19 11:33 51°18.858 2°51.514 17.7 26 17.5 101540 67
2005-07-19 11:34 51°18.727 2°51.319 17.7 30 17.5 101560 66
2005-07-19 11:35 51°18.591 2°51.12 14.8 23 17.6 101560 66
2005-07-19 11:36 51°18.504 2°50.979 13.1 19 17.7 101570 69
2005-07-19 11:37 51°18.494 2°50.97 11 27 17.7 101600 67
2005-07-19 11:38 51°18.496 2°50.995 10.5 35 17.6 101590 68
2005-07-19 11:39 51°18.506 2°51.037 12 65 17.5 101580 67
2005-07-19 11:40 51°18.524 2°51.082 11.2 98 17.4 101580 66
2005-07-19 11:41 51°18.542 2°51.122 11.6 114 17.5 101590 69
2005-07-19 11:42 51°18.558 2°51.166 11 123 17.5 101600 66
2005-07-19 11:43 51°18.571 2°51.208 12.3 110 17.5 101590 65
2005-07-19 11:44 51°18.583 2°51.25 11.3 107 17.5 101580 65
2005-07-19 11:45 51°18.594 2°51.292 11 87 17.5 101590 66
2005-07-19 11:46 51°18.606 2°51.335 10.5 94 17.6 101590 69
2005-07-19 11:47 51°18.618 2°51.379 11.6 101 17.6 101590 66
2005-07-19 11:48 51°18.63 2°51.423 11.1 105 17.7 101600 68
2005-07-19 11:49 51°18.645 2°51.465 11.2 99 17.7 101610 70
2005-07-19 11:50 51°18.659 2°51.508 13.4 99 17.7 101600 67
2005-07-19 11:51 51°18.674 2°51.55 11.8 110 17.7 101590 67
2005-07-19 11:52 51°18.69 2°51.593 11.9 103 17.7 101590 68
2005-07-19 11:53 51°18.705 2°51.635 11.9 113 17.7 101600 67
2005-07-19 11:54 51°18.722 2°51.68 11.8 110 17.6 101600 67
2005-07-19 11:55 51°18.735 2°51.722 13 111 17.6 101600 67
2005-07-19 11:56 51°18.749 2°51.765 13 102 17.6 101600 66
2005-07-19 11:57 51°18.762 2°51.81 13.1 98 17.6 101590 64
2005-07-19 11:58 51°18.776 2°51.855 11.5 103 17.6 101600 66
2005-07-19 11:59 51°18.79 2°51.898 11.2 101 17.7 101600 68
2005-07-19 12:00 51°18.802 2°51.939 11.7 88 17.8 101610 70
2005-07-19 12:01 51°18.818 2°51.979 11.1 90 17.7 101600 68
2005-07-19 12:02 51°18.834 2°52.022 13.8 97 17.7 101590 65
2005-07-19 12:03 51°18.852 2°52.061 12.2 111 17.7 101600 66
2005-07-19 12:04 51°18.87 2°52.1 12.4 116 17.7 101610 64
2005-07-19 12:05 51°18.889 2°52.14 14.5 107 17.8 101610 66
2005-07-19 12:06 51°18.906 2°52.179 11.5 112 17.8 101620 68
2005-07-19 12:07 51°18.922 2°52.218 10.8 116 17.7 101620 66
2005-07-19 12:08 51°18.939 2°52.257 13.6 105 17.8 101610 64
2005-07-19 12:09 51°18.957 2°52.294 11.6 104 17.8 101620 64
2005-07-19 12:10 51°18.974 2°52.332 11.4 119 17.8 101620 64
2005-07-19 12:11 51°18.989 2°52.372 14.3 115 17.8 101630 67
2005-07-19 12:12 51°19.003 2°52.413 13.3 120 17.8 101620 63
2005-07-19 12:13 51°19.017 2°52.454 12.4 121 17.8 101620 64
2005-07-19 12:14 51°19.029 2°52.495 11 104 17.8 101620 68
2005-07-19 12:15 51°19.041 2°52.539 12.4 104 17.8 101620 66
2005-07-19 12:16 51°19.053 2°52.58 14.7 106 17.8 101630 67
2005-07-19 12:17 51°19.064 2°52.622 11.8 111 17.8 101620 67
2005-07-19 12:18 51°19.077 2°52.665 12.1 103 17.8 101630 66
2005-07-19 12:19 51°19.088 2°52.707 15 101 17.8 101630 65
2005-07-19 12:20 51°19.091 2°52.751 15.6 86 17.8 101620 66
2005-07-19 12:21 51°18.982 2°52.716 19.6 43 17.8 101600 67
2005-07-19 12:22 51°18.799 2°52.639 19.4 43 17.7 101590 65
2005-07-19 12:23 51°18.604 2°52.558 18.2 46 17.7 101570 65
2005-07-19 12:24 51°18.416 2°52.485 18.8 50 17.7 101570 66
2005-07-19 12:25 51°18.221 2°52.412 18.7 44 17.7 101580 65
2005-07-19 12:26 51°18.033 2°52.347 15.1 43 17.7 101600 68
2005-07-19 12:27 51°17.839 2°52.323 18.5 64 17.7 101580 65
2005-07-19 12:28 51°17.638 2°52.336 17.1 57 17.7 101600 64
2005-07-19 12:29 51°17.43 2°52.35 17.8 69 17.7 101590 64
2005-07-19 12:30 51°17.228 2°52.415 14.6 78 17.8 101600 64
2005-07-19 12:31 51°17.035 2°52.52 13.2 76 17.8 101620 68
2005-07-19 12:32 51°16.843 2°52.652 12 80 17.9 101610 65
2005-07-19 12:33 51°16.648 2°52.791 13.4 78 17.9 101630 67
2005-07-19 12:34 51°16.456 2°52.928 12.9 80 17.9 101610 65
2005-07-19 12:35 51°16.258 2°53.063 12 81 17.9 101630 64
2005-07-19 12:36 51°16.066 2°53.198 10.5 81 18 101620 66
2005-07-19 12:37 51°15.873 2°53.346 13.3 83 18 101630 66
2005-07-19 12:38 51°15.682 2°53.497 14.8 86 18 101630 66
2005-07-19 12:39 51°15.488 2°53.651 12.2 80 18 101620 64
2005-07-19 12:40 51°15.303 2°53.801 14.2 82 18 101640 65
2005-07-19 12:41 51°15.111 2°53.954 14.7 87 18.1 101630 64
2005-07-19 12:42 51°14.932 2°54.127 13.5 101 18.2 101660 66
2005-07-19 12:43 51°14.761 2°54.341 12.4 96 18.2 101650 66
2005-07-19 12:44 51°14.6 2°54.586 10.9 93 18.2 101670 66
2005-07-19 12:45 51°14.449 2°54.85 12.8 110 18.2 101660 64
2005-07-19 12:46 51°14.329 2°55.135 10.8 114 18.2 101680 65
2005-07-19 12:47 51°14.214 2°55.349 10.2 108 18.2 101680 62
2005-07-19 12:48 51°14.072 2°55.465 7.8 38 18.5 101680 60
2005-07-19 12:49 51°13.926 2°55.566 9.2 76 18.7 101670 60
2005-07-19 12:50 51°13.813 2°55.642 4.9 353 18.8 101690 56
2005-07-19 12:51 51°13.729 2°55.746 4.9 99 19.1 101690 56
2005-07-19 12:52 51°13.673 2°55.868 6.9 105 19.1 101700 53
2005-07-19 12:53 51°13.641 2°55.98 9.4 166 19.1 101690 53
2005-07-19 12:54 51°13.623 2°56.046 10.3 148 19 101690 53
2005-07-19 12:55 51°13.621 2°56.049 6.8 147 19 101690 54
2005-07-19 12:56 51°13.622 2°56.051 7.2 154 19.1 101690 53